| time (UTC) | temp C | wind direction | speed KPH | gust KPH | rain 1hr cm | rain 24hr cm | rain mn cm | humidity % | barometer mb |
| 20260504045518 | 14 | 213 | 3.2 | 9.7 | 0.00 | 0.05 | 0.05 | 64 | 1005.1 |
| 20260504044518 | 13 | 152 | 3.2 | 6.4 | 0.00 | 0.05 | 0.05 | 66 | 1005.1 |
| 20260504043521 | 13 | 89 | 1.6 | 4.8 | 0.00 | 0.05 | 0.05 | 66 | 1005.1 |
| 20260504042518 | 14 | 111 | 1.6 | 6.4 | 0.00 | 0.05 | 0.05 | 65 | 1005.1 |
| 20260504041519 | 14 | 113 | 1.6 | 4.8 | 0.00 | 0.05 | 0.05 | 64 | 1005.1 |
| 20260504040539 | 14 | 112 | 1.6 | 3.2 | 0.00 | 0.05 | 0.05 | 64 | 1005.2 |
| 20260504035519 | 15 | 121 | 1.6 | 8.0 | 0.00 | 0.05 | 0.05 | 64 | 1005.3 |
| 20260504034519 | 15 | 89 | 3.2 | 6.4 | 0.00 | 0.05 | 0.05 | 63 | 1005.4 |
| 20260504033519 | 15 | 97 | 1.6 | 8.0 | 0.00 | 0.05 | 0.05 | 63 | 1005.5 |
| 20260504032519 | 15 | 90 | 3.2 | 8.0 | 0.00 | 0.05 | 0.05 | 63 | 1005.5 |
| 20260504031519 | 15 | 96 | 3.2 | 8.0 | 0.00 | 0.05 | 0.05 | 62 | 1005.5 |
| 20260504030519 | 15 | 101 | 1.6 | 6.4 | 0.00 | 0.05 | 0.05 | 63 | 1005.6 |
| 20260504025557 | 15 | 97 | 1.6 | 4.8 | 0.00 | 0.05 | 0.05 | 63 | 1005.6 |
| 20260504024517 | 15 | 75 | 3.2 | 4.8 | 0.00 | 0.05 | 0.05 | 61 | 1005.6 |
| 20260504023517 | 15 | 62 | 3.2 | 6.4 | 0.00 | 0.05 | 0.05 | 60 | 1005.6 |
| 20260504022517 | 15 | 78 | 3.2 | 6.4 | 0.00 | 0.05 | 0.05 | 60 | 1005.5 |
| 20260504021520 | 15 | 78 | 3.2 | 4.8 | 0.00 | 0.05 | 0.05 | 61 | 1005.5 |
| 20260504020517 | 15 | 84 | 3.2 | 4.8 | 0.00 | 0.05 | 0.05 | 61 | 1005.4 |
| 20260504015518 | 15 | 69 | 3.2 | 6.4 | 0.00 | 0.05 | 0.05 | 61 | 1005.4 |
| 20260504014518 | 15 | 78 | 3.2 | 4.8 | 0.00 | 0.05 | 0.05 | 61 | 1005.3 |
| 20260504013621 | 16 | 60 | 4.8 | 8.0 | 0.00 | 0.05 | 0.05 | 57 | 1005.2 |
| 20260504012518 | 16 | 68 | 1.6 | 6.4 | 0.00 | 0.05 | 0.05 | 55 | 1005.0 |
| 20260504011518 | 17 | 71 | 1.6 | 4.8 | 0.00 | 0.05 | 0.05 | 53 | 1005.0 |
| 20260504010518 | 18 | 69 | 1.6 | 3.2 | 0.00 | 0.05 | 0.05 | 51 | 1004.9 |
| 20260504005518 | 18 | 62 | 1.6 | 3.2 | 0.00 | 0.05 | 0.05 | 50 | 1004.8 |
| 20260504004521 | 18 | 232 | 1.6 | 4.8 | 0.00 | 0.05 | 0.05 | 48 | 1004.9 |
| 20260504003518 | 18 | 225 | 3.2 | 9.7 | 0.00 | 0.05 | 0.05 | 48 | 1004.9 |
| 20260504002519 | 19 | 212 | 1.6 | 6.4 | 0.00 | 0.05 | 0.05 | 47 | 1004.9 |
| 20260504001519 | 19 | 212 | 3.2 | 6.4 | 0.00 | 0.05 | 0.05 | 46 | 1004.9 |
| 20260504000519 | 20 | 212 | 3.2 | 12.9 | 0.00 | 0.05 | 0.05 | 45 | 1005.0 |
| 20260503235519 | 20 | 204 | 3.2 | 8.0 | 0.00 | 0.05 | 0.05 | 45 | 1004.9 |
| 20260503234519 | 20 | 212 | 3.2 | 9.7 | 0.00 | 0.05 | 0.05 | 45 | 1004.9 |
| 20260503233519 | 20 | 220 | 4.8 | 12.9 | 0.00 | 0.05 | 0.05 | 45 | 1004.9 |
| 20260503232520 | 20 | 212 | 3.2 | 8.0 | 0.00 | 0.05 | 0.05 | 45 | 1005.0 |
| 20260503231519 | 20 | 226 | 6.4 | 12.9 | 0.00 | 0.05 | 0.05 | 44 | 1005.1 |
| 20260503230519 | 20 | 228 | 6.4 | 14.5 | 0.00 | 0.05 | 0.05 | 45 | 1005.0 |
| 20260503225516 | 20 | 193 | 4.8 | 11.3 | 0.00 | 0.05 | 0.05 | 46 | 1005.1 |
| 20260503224517 | 19 | 234 | 6.4 | 14.5 | 0.00 | 0.05 | 0.05 | 45 | 1005.2 |
| 20260503223537 | 19 | 225 | 6.4 | 12.9 | 0.00 | 0.05 | 0.05 | 46 | 1005.3 |
| 20260503222517 | 19 | 218 | 6.4 | 16.1 | 0.00 | 0.05 | 0.05 | 46 | 1005.3 |
| 20260503221521 | 18 | 229 | 8.0 | 19.3 | 0.00 | 0.05 | 0.05 | 46 | 1005.4 |
| 20260503220521 | 18 | 226 | 9.7 | 19.3 | 0.00 | 0.05 | 0.05 | 46 | 1005.5 |
| 20260503215518 | 18 | 227 | 8.0 | 20.9 | 0.00 | 0.05 | 0.05 | 47 | 1005.7 |
| 20260503214518 | 18 | 228 | 9.7 | 19.3 | 0.00 | 0.05 | 0.05 | 46 | 1005.8 |
| 20260503213521 | 18 | 229 | 8.0 | 19.3 | 0.00 | 0.05 | 0.05 | 46 | 1006.0 |
| 20260503212518 | 18 | 225 | 6.4 | 16.1 | 0.00 | 0.05 | 0.05 | 46 | 1006.1 |
| 20260503211518 | 18 | 228 | 8.0 | 16.1 | 0.00 | 0.05 | 0.05 | 46 | 1006.2 |
| 20260503210518 | 18 | 227 | 8.0 | 17.7 | 0.00 | 0.05 | 0.05 | 46 | 1006.4 |
| 20260503205518 | 18 | 230 | 9.7 | 17.7 | 0.00 | 0.05 | 0.05 | 46 | 1006.5 |
| 20260503204521 | 17 | 225 | 8.0 | 20.9 | 0.00 | 0.05 | 0.05 | 46 | 1006.8 |
| 20260503203519 | 17 | 223 | 6.4 | 24.1 | 0.00 | 0.05 | 0.05 | 50 | 1007.0 |
| 20260503202519 | 17 | 223 | 8.0 | 19.3 | 0.00 | 0.05 | 0.05 | 50 | 1007.2 |
| 20260503201519 | 17 | 210 | 6.4 | 12.9 | 0.00 | 0.05 | 0.05 | 52 | 1007.6 |
| 20260503200519 | 16 | 221 | 6.4 | 17.7 | 0.00 | 0.05 | 0.05 | 54 | 1007.9 |
| 20260503195519 | 16 | 207 | 6.4 | 14.5 | 0.00 | 0.05 | 0.05 | 53 | 1008.2 |
| 20260503194519 | 16 | 224 | 8.0 | 20.9 | 0.00 | 0.05 | 0.05 | 52 | 1008.2 |
| 20260503193519 | 16 | 231 | 9.7 | 22.5 | 0.00 | 0.05 | 0.05 | 52 | 1008.2 |
| 20260503192519 | 16 | 167 | 8.0 | 16.1 | 0.00 | 0.05 | 0.05 | 53 | 1008.2 |
| 20260503191540 | 15 | 174 | 9.7 | 17.7 | 0.00 | 0.05 | 0.05 | 53 | 1008.3 |
| 20260503190520 | 15 | 187 | 9.7 | 19.3 | 0.00 | 0.05 | 0.05 | 54 | 1008.4 |
| 20260503185517 | 15 | 192 | 9.7 | 22.5 | 0.00 | 0.05 | 0.05 | 53 | 1008.4 |
| 20260503184517 | 15 | 181 | 4.8 | 16.1 | 0.00 | 0.05 | 0.05 | 55 | 1008.5 |
| 20260503183517 | 15 | 152 | 8.0 | 16.1 | 0.00 | 0.05 | 0.05 | 56 | 1008.7 |
| 20260503182518 | 14 | 172 | 8.0 | 20.9 | 0.00 | 0.05 | 0.05 | 57 | 1008.9 |
| 20260503181520 | 13 | 159 | 9.7 | 22.5 | 0.00 | 0.05 | 0.05 | 58 | 1009.1 |
| 20260503180521 | 13 | 163 | 12.9 | 27.4 | 0.00 | 0.05 | 0.05 | 58 | 1009.4 |
| 20260503175538 | 13 | 186 | 11.3 | 27.4 | 0.00 | 0.05 | 0.05 | 59 | 1009.7 |
| 20260503174518 | 13 | 203 | 9.7 | 27.4 | 0.00 | 0.05 | 0.05 | 59 | 1010.0 |
| 20260503173518 | 13 | 205 | 6.4 | 19.3 | 0.00 | 0.05 | 0.05 | 62 | 1010.3 |
| 20260503172518 | 13 | 165 | 8.0 | 20.9 | 0.00 | 0.05 | 0.05 | 64 | 1010.6 |
| 20260503171518 | 12 | 177 | 9.7 | 17.7 | 0.03 | 0.05 | 0.05 | 66 | 1010.9 |
| 20260503170518 | 11 | 206 | 6.4 | 17.7 | 0.05 | 0.05 | 0.05 | 69 | 1011.1 |
| 20260503150517 | 12 | 181 | 4.8 | 12.9 | 0.00 | 0.00 | 0.00 | 60 | 1012.2 |
| 20260503130518 | 11 | 202 | 4.8 | 19.3 | 0.00 | 0.00 | 0.00 | 57 | 1013.1 |
| 20260503110517 | 9 | 210 | 3.2 | 11.3 | 0.00 | 0.00 | 0.00 | 56 | 1012.7 |
| 20260503081520 | 8 | 218 | 3.2 | 9.7 | 0.00 | 0.00 | 0.00 | 55 | 1013.7 |
| 20260503080517 | 8 | 211 | 3.2 | 9.7 | 0.00 | 0.00 | 0.00 | 55 | 1013.6 |
| 20260503072518 | 7 | 176 | 1.6 | 4.8 | 0.00 | 0.00 | 0.00 | 56 | 1013.7 |
| 20260503071517 | 7 | 164 | 1.6 | 6.4 | 0.00 | 0.00 | 0.00 | 57 | 1013.8 |
| 20260503070517 | 7 | 195 | 1.6 | 6.4 | 0.00 | 0.00 | 0.00 | 57 | 1013.9 |
| 20260503054519 | 7 | 96 | 1.6 | 4.8 | 0.00 | 0.00 | 0.00 | 61 | 1014.6 |
| 20260503053539 | 7 | 102 | 1.6 | 3.2 | 0.00 | 0.00 | 0.00 | 60 | 1014.6 |
| 20260503052519 | 7 | 124 | 1.6 | 3.2 | 0.00 | 0.00 | 0.00 | 60 | 1014.7 |
| 20260503051519 | 7 | 204 | 1.6 | 6.4 | 0.00 | 0.00 | 0.00 | 60 | 1014.8 |
| 20260503050519 | 7 | 138 | 1.6 | 4.8 | 0.00 | 0.00 | 0.00 | 59 | 1014.8 |